AAL1002 KMSN-KCLT

Flight info

Callsign AAL1002
Flight time 1h 33m
Altitude 37000
Route WAITS OBK HEVAN TAFTT PARQR4
Aircraft A21N/M-SDE3FGHIRWY/LB1

Departure

Time 2026-04-25 20:37
Airport Dane County Regional Truax Field (KMSN)

Arrival

Time 2026-04-25 22:10
Airport Charlotte Douglas International Airport (KCLT)
Time Latitude Longitude Altitude Speed Heading
2026-04-25 20:21 43.13427 -89.34515 862 ft 0 kts 284°
2026-04-25 20:30 43.13426 -89.34507 862 ft 0 kts 284°
2026-04-25 20:30 43.13423 -89.34489 862 ft 2 kts 268°
2026-04-25 20:31 43.13426 -89.34469 862 ft 2 kts 252°
2026-04-25 20:31 43.13432 -89.34450 862 ft 2 kts 235°
2026-04-25 20:31 43.13443 -89.34435 862 ft 2 kts 218°
2026-04-25 20:31 43.13456 -89.34424 862 ft 2 kts 201°
2026-04-25 20:32 43.13467 -89.34420 862 ft 0 kts 187°
2026-04-25 20:32 43.13474 -89.34419 862 ft 0 kts 185°
2026-04-25 20:33 43.13473 -89.34419 862 ft 0 kts 185°
2026-04-25 20:33 43.13454 -89.34422 862 ft 4 kts 185°
2026-04-25 20:33 43.13443 -89.34422 862 ft 3 kts 181°
2026-04-25 20:34 43.13397 -89.34395 862 ft 7 kts 145°
2026-04-25 20:34 43.13362 -89.34386 862 ft 6 kts 189°
2026-04-25 20:34 43.13340 -89.34391 862 ft 10 kts 189°
2026-04-25 20:34 43.13231 -89.34413 863 ft 20 kts 188°
2026-04-25 20:35 43.13066 -89.34441 863 ft 25 kts 187°
2026-04-25 20:35 43.12896 -89.34452 863 ft 23 kts 180°
2026-04-25 20:35 43.12732 -89.34455 863 ft 22 kts 182°
2026-04-25 20:35 43.12575 -89.34458 863 ft 22 kts 181°
2026-04-25 20:36 43.12461 -89.34388 863 ft 18 kts 97°
2026-04-25 20:36 43.12486 -89.34221 863 ft 16 kts 25°
2026-04-25 20:36 43.12674 -89.34205 864 ft 58 kts
2026-04-25 20:36 43.13336 -89.34177 863 ft 129 kts
2026-04-25 20:37 43.14429 -89.34131 998 ft 173 kts
2026-04-25 20:37 43.15660 -89.34124 1610 ft 181 kts
2026-04-25 20:37 43.16854 -89.33867 2475 ft 173 kts 30°
2026-04-25 20:37 43.17659 -89.32700 3107 ft 179 kts 66°
2026-04-25 20:38 43.17796 -89.30954 3614 ft 198 kts 94°
2026-04-25 20:38 43.17639 -89.29028 4140 ft 215 kts 94°
2026-04-25 20:38 43.17494 -89.26879 4594 ft 237 kts 94°
2026-04-25 20:38 43.17338 -89.24564 5114 ft 257 kts 94°
2026-04-25 20:39 43.17164 -89.22068 5822 ft 270 kts 94°
2026-04-25 20:39 43.16979 -89.19501 6684 ft 275 kts 95°
2026-04-25 20:39 43.16789 -89.16883 7538 ft 280 kts 96°
2026-04-25 20:39 43.16725 -89.16008 7814 ft 282 kts 96°
2026-04-25 20:40 43.16396 -89.11541 9196 ft 289 kts 97°
2026-04-25 20:40 43.16190 -89.08791 10021 ft 292 kts 97°
2026-04-25 20:40 43.15983 -89.06049 10689 ft 301 kts 98°
2026-04-25 20:40 43.15758 -89.03104 11113 ft 318 kts 98°
2026-04-25 20:41 43.15522 -89.00023 11488 ft 336 kts 98°
2026-04-25 20:41 43.15271 -88.96763 11847 ft 354 kts 98°
2026-04-25 20:41 43.15011 -88.93367 12339 ft 366 kts 98°
2026-04-25 20:41 43.14746 -88.89877 13056 ft 371 kts 98°
2026-04-25 20:42 43.14509 -88.86767 13696 ft 374 kts 98°
2026-04-25 20:42 43.14286 -88.83849 14283 ft 378 kts 98°
2026-04-25 20:42 43.14009 -88.80267 14959 ft 383 kts 98°
2026-04-25 20:42 43.13724 -88.76603 15625 ft 388 kts 98°
2026-04-25 20:43 43.13439 -88.72941 16282 ft 392 kts 98°
2026-04-25 20:43 43.13146 -88.69257 16950 ft 396 kts 99°
2026-04-25 20:43 43.12434 -88.65633 17540 ft 395 kts 118°
2026-04-25 20:43 43.10841 -88.62605 18170 ft 392 kts 138°
2026-04-25 20:44 43.08659 -88.60493 18792 ft 389 kts 153°
2026-04-25 20:44 43.06268 -88.58700 19383 ft 393 kts 154°
2026-04-25 20:44 43.03843 -88.56883 19937 ft 398 kts 153°
2026-04-25 20:44 43.01438 -88.55067 20505 ft 402 kts 153°
2026-04-25 20:45 42.98964 -88.53188 21066 ft 405 kts 153°
2026-04-25 20:45 42.96518 -88.51327 21604 ft 409 kts 152°
2026-04-25 20:45 42.94013 -88.49419 22135 ft 413 kts 152°
2026-04-25 20:45 42.91499 -88.47500 22653 ft 417 kts 152°
2026-04-25 20:46 42.88956 -88.45559 23150 ft 421 kts 152°
2026-04-25 20:46 42.86455 -88.43651 23623 ft 424 kts 152°
2026-04-25 20:46 42.83878 -88.41687 24093 ft 428 kts 152°
2026-04-25 20:46 42.81252 -88.39687 24535 ft 432 kts 152°
2026-04-25 20:47 42.78633 -88.37695 24961 ft 436 kts 152°
2026-04-25 20:47 42.75989 -88.35685 25366 ft 440 kts 152°
2026-04-25 20:47 42.73269 -88.33621 25773 ft 443 kts 153°
2026-04-25 20:47 42.70657 -88.31639 26147 ft 446 kts 153°
2026-04-25 20:48 42.67923 -88.29567 26525 ft 449 kts 153°
2026-04-25 20:48 42.65198 -88.27504 26878 ft 453 kts 153°
2026-04-25 20:48 42.62418 -88.25401 27225 ft 456 kts 153°
2026-04-25 20:48 42.59659 -88.23317 27557 ft 459 kts 153°
2026-04-25 20:49 42.56838 -88.21188 27875 ft 462 kts 153°
2026-04-25 20:49 42.54020 -88.19064 28189 ft 465 kts 153°
2026-04-25 20:49 42.51199 -88.16939 28568 ft 466 kts 153°
2026-04-25 20:49 42.48382 -88.14820 29044 ft 465 kts 153°
2026-04-25 20:50 42.45550 -88.12690 29484 ft 464 kts 153°
2026-04-25 20:50 42.42729 -88.10571 29882 ft 464 kts 153°
2026-04-25 20:50 42.39890 -88.08441 30277 ft 464 kts 153°
2026-04-25 20:50 42.37078 -88.06334 30680 ft 464 kts 153°
2026-04-25 20:51 42.34262 -88.04224 31052 ft 464 kts 153°
2026-04-25 20:51 42.31455 -88.02123 31427 ft 463 kts 153°
2026-04-25 20:51 42.28624 -88.00009 31808 ft 463 kts 153°
2026-04-25 20:51 42.25800 -87.97900 32203 ft 462 kts 153°
2026-04-25 20:52 42.23021 -87.95696 32563 ft 462 kts 150°
2026-04-25 20:52 42.22126 -87.94925 32682 ft 462 kts 149°
2026-04-25 20:52 42.17789 -87.90707 33231 ft 463 kts 144°
2026-04-25 20:52 42.15223 -87.88042 33526 ft 463 kts 144°
2026-04-25 20:53 42.12700 -87.85416 33827 ft 463 kts 144°
2026-04-25 20:53 42.10159 -87.82777 34127 ft 462 kts 144°
2026-04-25 20:53 42.07599 -87.80122 34431 ft 462 kts 145°
2026-04-25 20:53 42.05082 -87.77515 34720 ft 461 kts 145°
2026-04-25 20:54 42.02532 -87.74882 34951 ft 461 kts 145°
2026-04-25 20:54 41.99964 -87.72233 35158 ft 460 kts 145°
2026-04-25 20:54 41.97450 -87.69645 35364 ft 459 kts 145°
2026-04-25 20:54 41.94907 -87.67029 35540 ft 460 kts 145°
2026-04-25 20:55 41.92360 -87.64410 35691 ft 461 kts 145°
2026-04-25 20:55 41.89841 -87.61824 35836 ft 461 kts 145°
2026-04-25 20:55 41.87283 -87.59199 35993 ft 462 kts 145°
2026-04-25 20:55 41.84730 -87.56583 36144 ft 462 kts 145°
2026-04-25 20:56 41.82164 -87.53956 36300 ft 462 kts 145°
2026-04-25 20:56 41.79603 -87.51335 36424 ft 463 kts 145°
2026-04-25 20:56 41.77028 -87.48704 36561 ft 463 kts 145°
2026-04-25 20:56 41.74482 -87.46104 36728 ft 463 kts 145°
2026-04-25 20:57 41.71910 -87.43481 36887 ft 463 kts 145°
2026-04-25 20:57 41.69351 -87.40874 37003 ft 465 kts 145°
2026-04-25 20:57 41.64233 -87.35670 37010 ft 465 kts 145°
2026-04-25 20:58 41.59070 -87.30428 37012 ft 465 kts 146°
2026-04-25 20:58 41.53914 -87.25204 37009 ft 465 kts 146°
2026-04-25 20:59 41.48745 -87.19979 37003 ft 465 kts 146°
2026-04-25 20:59 41.43621 -87.14810 36999 ft 465 kts 146°
2026-04-25 21:00 41.40175 -87.11340 37006 ft 465 kts 146°
2026-04-25 21:01 41.30742 -87.01865 37007 ft 465 kts 145°
2026-04-25 21:01 41.25584 -86.96697 36983 ft 464 kts 145°
2026-04-25 21:02 41.20432 -86.91547 36989 ft 464 kts 145°
2026-04-25 21:02 41.15255 -86.86380 36983 ft 464 kts 145°
2026-04-25 21:03 41.10126 -86.81272 36967 ft 463 kts 146°
2026-04-25 21:03 41.04963 -86.76144 36962 ft 464 kts 146°
2026-04-25 21:04 40.99820 -86.71045 36959 ft 463 kts 146°
2026-04-25 21:04 40.94642 -86.65920 36956 ft 464 kts 146°
2026-04-25 21:05 40.89477 -86.60819 36950 ft 464 kts 146°
2026-04-25 21:05 40.84271 -86.55687 36949 ft 464 kts 146°
2026-04-25 21:06 40.79068 -86.50569 36940 ft 464 kts 146°
2026-04-25 21:06 40.73916 -86.45512 36945 ft 464 kts 146°
2026-04-25 21:07 40.68742 -86.40441 36948 ft 465 kts 146°
2026-04-25 21:07 40.63551 -86.35368 36951 ft 465 kts 146°
2026-04-25 21:08 40.58466 -86.30405 36946 ft 465 kts 146°
2026-04-25 21:08 40.53220 -86.25293 36940 ft 465 kts 146°
2026-04-25 21:09 40.45467 -86.17759 36932 ft 465 kts 146°
2026-04-25 21:09 40.40241 -86.12695 36934 ft 466 kts 146°
2026-04-25 21:10 40.35022 -86.07646 36928 ft 467 kts 146°
2026-04-25 21:10 40.29814 -86.02618 36931 ft 467 kts 146°
2026-04-25 21:11 40.24572 -85.97566 36922 ft 466 kts 147°
2026-04-25 21:11 40.19373 -85.92566 36919 ft 466 kts 147°
2026-04-25 21:12 40.14139 -85.87543 36918 ft 465 kts 146°
2026-04-25 21:12 40.10652 -85.84202 36921 ft 465 kts 146°
2026-04-25 21:13 40.03691 -85.77544 36925 ft 466 kts 147°
2026-04-25 21:13 39.98487 -85.72577 36922 ft 466 kts 147°
2026-04-25 21:14 39.93238 -85.67577 36932 ft 466 kts 147°
2026-04-25 21:14 39.87993 -85.62590 36931 ft 466 kts 147°
2026-04-25 21:15 39.82764 -85.57631 36912 ft 465 kts 147°
2026-04-25 21:15 39.77511 -85.52657 36929 ft 465 kts 147°
2026-04-25 21:16 39.72297 -85.47729 36927 ft 465 kts 147°
2026-04-25 21:16 39.67098 -85.42824 36918 ft 464 kts 147°
2026-04-25 21:17 39.61872 -85.37903 36899 ft 464 kts 147°
2026-04-25 21:17 39.56628 -85.32976 36900 ft 464 kts 147°
2026-04-25 21:18 39.51391 -85.28062 36910 ft 464 kts 147°
2026-04-25 21:18 39.46165 -85.23167 36920 ft 464 kts 148°
2026-04-25 21:19 39.40972 -85.18314 36912 ft 464 kts 148°
2026-04-25 21:19 39.35819 -85.13287 36928 ft 465 kts 143°
2026-04-25 21:20 39.32618 -85.09560 36925 ft 468 kts 139°
2026-04-25 21:20 39.26500 -85.01553 36891 ft 469 kts 137°
2026-04-25 21:21 39.21967 -84.95609 36894 ft 468 kts 138°
2026-04-25 21:21 39.17390 -84.89629 36896 ft 468 kts 137°
2026-04-25 21:22 39.12829 -84.83684 36896 ft 468 kts 138°
2026-04-25 21:22 39.08271 -84.77758 36896 ft 467 kts 138°
2026-04-25 21:23 39.03725 -84.71858 36895 ft 466 kts 138°
2026-04-25 21:23 38.99156 -84.65939 36892 ft 467 kts 138°
2026-04-25 21:24 38.94559 -84.59994 36905 ft 467 kts 138°
2026-04-25 21:24 38.90006 -84.54121 36861 ft 467 kts 138°
2026-04-25 21:25 38.85395 -84.48185 36884 ft 467 kts 138°
2026-04-25 21:25 38.80789 -84.42265 36881 ft 467 kts 138°
2026-04-25 21:26 38.76218 -84.36401 36874 ft 467 kts 138°
2026-04-25 21:26 38.71681 -84.30592 36869 ft 467 kts 139°
2026-04-25 21:27 38.67074 -84.24706 36881 ft 466 kts 139°
2026-04-25 21:27 38.62474 -84.18839 36875 ft 466 kts 139°
2026-04-25 21:28 38.57906 -84.13024 36879 ft 465 kts 139°
2026-04-25 21:28 38.53327 -84.07206 36862 ft 465 kts 140°
2026-04-25 21:29 38.48762 -84.01416 36874 ft 464 kts 140°
2026-04-25 21:29 38.44163 -83.95597 36870 ft 464 kts 140°
2026-04-25 21:30 38.39581 -83.89807 36873 ft 464 kts 140°
2026-04-25 21:30 38.35757 -83.84984 36882 ft 464 kts 140°
2026-04-25 21:31 38.30437 -83.78290 36881 ft 464 kts 140°
2026-04-25 21:31 38.25847 -83.72521 36886 ft 463 kts 140°
2026-04-25 21:32 38.21280 -83.66795 36900 ft 463 kts 140°
2026-04-25 21:32 38.16682 -83.61041 36902 ft 462 kts 140°
2026-04-25 21:33 38.12138 -83.55362 36900 ft 461 kts 141°
2026-04-25 21:33 38.07556 -83.49652 36894 ft 462 kts 141°
2026-04-25 21:34 38.02967 -83.43941 36882 ft 461 kts 141°
2026-04-25 21:34 37.98410 -83.38277 36881 ft 460 kts 141°
2026-04-25 21:35 37.93861 -83.32638 36882 ft 459 kts 141°
2026-04-25 21:35 37.89260 -83.26942 36876 ft 459 kts 142°
2026-04-25 21:36 37.84782 -83.21413 36864 ft 459 kts 142°
2026-04-25 21:36 37.80220 -83.15787 36878 ft 459 kts 142°
2026-04-25 21:37 37.77164 -83.12020 36880 ft 458 kts 142°
2026-04-25 21:37 37.71118 -83.04591 36875 ft 458 kts 142°
2026-04-25 21:38 37.66532 -82.98965 36873 ft 458 kts 141°
2026-04-25 21:38 37.61977 -82.93384 36874 ft 458 kts 142°
2026-04-25 21:39 37.57425 -82.87818 36872 ft 457 kts 142°
2026-04-25 21:39 37.52861 -82.82241 36875 ft 457 kts 142°
2026-04-25 21:40 37.48312 -82.76642 36881 ft 457 kts 142°
2026-04-25 21:40 37.43798 -82.71087 36886 ft 458 kts 142°
2026-04-25 21:41 37.39238 -82.65491 36892 ft 458 kts 141°
2026-04-25 21:41 37.34689 -82.59912 36892 ft 458 kts 141°
2026-04-25 21:42 37.30116 -82.54318 36889 ft 458 kts 141°
2026-04-25 21:42 37.25554 -82.48743 36899 ft 458 kts 141°
2026-04-25 21:43 37.21014 -82.43211 36909 ft 459 kts 141°
2026-04-25 21:43 37.16423 -82.37621 36912 ft 459 kts 141°
2026-04-25 21:44 37.11915 -82.32139 36916 ft 459 kts 142°
2026-04-25 21:45 37.04898 -82.24026 36558 ft 453 kts 148°
2026-04-25 21:45 36.99838 -82.19539 35851 ft 440 kts 154°
2026-04-25 21:45 36.97210 -82.17621 35352 ft 436 kts 157°
2026-04-25 21:46 36.94550 -82.15775 34761 ft 436 kts 157°
2026-04-25 21:46 36.91928 -82.13957 34144 ft 437 kts 156°
2026-04-25 21:46 36.89253 -82.12097 33406 ft 438 kts 156°
2026-04-25 21:46 36.86738 -82.10363 32733 ft 438 kts 156°
2026-04-25 21:47 36.84053 -82.08521 32022 ft 439 kts 156°
2026-04-25 21:47 36.81453 -82.06737 31321 ft 441 kts 156°
2026-04-25 21:47 36.78756 -82.04889 30588 ft 442 kts 156°
2026-04-25 21:47 36.76048 -82.03032 29846 ft 444 kts 156°
2026-04-25 21:48 36.73313 -82.01161 29082 ft 446 kts 156°
2026-04-25 21:48 36.70590 -81.99299 28317 ft 448 kts 156°
2026-04-25 21:48 36.67878 -81.97445 27557 ft 449 kts 155°
2026-04-25 21:48 36.65183 -81.95598 27053 ft 444 kts 155°
2026-04-25 21:49 36.62475 -81.93742 26544 ft 439 kts 155°
2026-04-25 21:49 36.59828 -81.91931 26039 ft 435 kts 155°
2026-04-25 21:49 36.57164 -81.90112 25519 ft 432 kts 155°
2026-04-25 21:49 36.54547 -81.88326 25012 ft 428 kts 155°
2026-04-25 21:50 36.51980 -81.86574 24687 ft 419 kts 155°
2026-04-25 21:50 36.49438 -81.84842 24413 ft 409 kts 155°
2026-04-25 21:50 36.46978 -81.83166 24205 ft 398 kts 155°
2026-04-25 21:50 36.45390 -81.82085 24112 ft 390 kts 155°
2026-04-25 21:51 36.42262 -81.79963 23755 ft 380 kts 155°
2026-04-25 21:51 36.39934 -81.78387 23305 ft 378 kts 155°
2026-04-25 21:51 36.37643 -81.76837 22878 ft 376 kts 155°
2026-04-25 21:51 36.35346 -81.75285 22459 ft 374 kts 155°
2026-04-25 21:52 36.33069 -81.73746 22033 ft 373 kts 155°
2026-04-25 21:52 36.30786 -81.72204 21606 ft 371 kts 154°
2026-04-25 21:52 36.28505 -81.70664 21174 ft 369 kts 154°
2026-04-25 21:52 36.26276 -81.69159 20748 ft 367 kts 154°
2026-04-25 21:53 36.24047 -81.67652 20329 ft 366 kts 155°
2026-04-25 21:53 36.21810 -81.66142 19904 ft 364 kts 154°
2026-04-25 21:53 36.19570 -81.64632 19472 ft 362 kts 154°
2026-04-25 21:53 36.17383 -81.63161 19053 ft 360 kts 154°
2026-04-25 21:54 36.15173 -81.61672 18626 ft 358 kts 154°
2026-04-25 21:54 36.12983 -81.60202 18206 ft 356 kts 154°
2026-04-25 21:54 36.10818 -81.58749 17788 ft 354 kts 153°
2026-04-25 21:54 36.08656 -81.57297 17376 ft 352 kts 153°
2026-04-25 21:55 36.06506 -81.55851 16964 ft 350 kts 154°
2026-04-25 21:55 36.04388 -81.54432 16555 ft 349 kts 154°
2026-04-25 21:55 36.02243 -81.52995 16140 ft 347 kts 154°
2026-04-25 21:55 36.00149 -81.51593 15738 ft 345 kts 154°
2026-04-25 21:56 35.98037 -81.50176 15342 ft 343 kts 153°
2026-04-25 21:56 35.96656 -81.49249 15079 ft 342 kts 154°
2026-04-25 21:56 35.93870 -81.47387 14522 ft 340 kts 153°
2026-04-25 21:56 35.91793 -81.45999 14108 ft 338 kts 154°
2026-04-25 21:57 35.89728 -81.44617 13703 ft 335 kts 153°
2026-04-25 21:57 35.87689 -81.43256 13305 ft 334 kts 153°
2026-04-25 21:57 35.85749 -81.41962 12918 ft 331 kts 153°
2026-04-25 21:57 35.83723 -81.40608 12519 ft 329 kts 154°
2026-04-25 21:58 35.81721 -81.39272 12160 ft 325 kts 154°
2026-04-25 21:58 35.79747 -81.37960 12002 ft 314 kts 154°
2026-04-25 21:58 35.77875 -81.36706 11869 ft 303 kts 154°
2026-04-25 21:58 35.76055 -81.35442 11517 ft 301 kts 153°
2026-04-25 21:59 35.74259 -81.34168 11164 ft 299 kts 153°
2026-04-25 21:59 35.72536 -81.32937 10933 ft 293 kts 153°
2026-04-25 21:59 35.70850 -81.31724 10952 ft 294 kts 153°
2026-04-25 22:00 35.67302 -81.29178 10995 ft 294 kts 152°
2026-04-25 22:00 35.65593 -81.27776 10992 ft 296 kts 138°
2026-04-25 22:00 35.64518 -81.25622 10997 ft 303 kts 109°
2026-04-25 22:00 35.64294 -81.23027 10944 ft 306 kts 91°
2026-04-25 22:01 35.64144 -81.20479 10664 ft 297 kts 108°
2026-04-25 22:01 35.63261 -81.18268 10044 ft 288 kts 134°
2026-04-25 22:01 35.61808 -81.16587 9389 ft 282 kts 142°
2026-04-25 22:01 35.61321 -81.16054 9163 ft 282 kts 141°
2026-04-25 22:02 35.59106 -81.13175 8192 ft 276 kts 133°
2026-04-25 22:02 35.57944 -81.11327 7825 ft 269 kts 129°
2026-04-25 22:02 35.56867 -81.09455 7494 ft 267 kts 127°
2026-04-25 22:02 35.55825 -81.07546 7159 ft 267 kts 127°
2026-04-25 22:03 35.54810 -81.05639 6820 ft 266 kts 127°
2026-04-25 22:03 35.53807 -81.03730 6494 ft 264 kts 126°
2026-04-25 22:03 35.52822 -81.01840 6193 ft 262 kts 126°
2026-04-25 22:03 35.51860 -80.99991 6121 ft 249 kts 126°
2026-04-25 22:04 35.50941 -80.98228 6075 ft 241 kts 126°
2026-04-25 22:04 35.49962 -80.96655 5946 ft 227 kts 145°
2026-04-25 22:04 35.48552 -80.95860 5658 ft 219 kts 172°
2026-04-25 22:04 35.47052 -80.95634 5360 ft 216 kts 180°
2026-04-25 22:05 35.45547 -80.95538 5057 ft 215 kts 180°
2026-04-25 22:05 35.44049 -80.95450 4777 ft 214 kts 180°
2026-04-25 22:05 35.42582 -80.95346 4481 ft 213 kts 180°
2026-04-25 22:05 35.41113 -80.95229 4260 ft 206 kts 180°
2026-04-25 22:06 35.39705 -80.95106 4008 ft 200 kts 179°
2026-04-25 22:06 35.38331 -80.94984 3723 ft 195 kts 180°
2026-04-25 22:06 35.36966 -80.94865 3457 ft 196 kts 180°
2026-04-25 22:06 35.35593 -80.94745 3197 ft 197 kts 180°
2026-04-25 22:07 35.34217 -80.94625 2947 ft 198 kts 180°
2026-04-25 22:07 35.33311 -80.94546 2784 ft 198 kts 180°
2026-04-25 22:07 35.31470 -80.94386 2452 ft 195 kts 180°
2026-04-25 22:07 35.30127 -80.94267 2202 ft 189 kts 181°
2026-04-25 22:08 35.28856 -80.94157 1975 ft 174 kts 180°
2026-04-25 22:08 35.27703 -80.94055 1753 ft 159 kts 181°
2026-04-25 22:08 35.27701 -80.94055 1752 ft 159 kts 181°
2026-04-25 22:08 35.26664 -80.93967 1550 ft 152 kts 181°
2026-04-25 22:09 35.25608 -80.93885 1362 ft 151 kts 181°
2026-04-25 22:09 35.24547 -80.93793 1200 ft 150 kts 180°
2026-04-25 22:09 35.23502 -80.93708 1004 ft 149 kts 179°
2026-04-25 22:09 35.22469 -80.93617 792 ft 148 kts 179°
2026-04-25 22:10 35.21516 -80.93534 755 ft 116 kts 176°
2026-04-25 22:10 35.20876 -80.93478 755 ft 67 kts 175°
2026-04-25 22:10 35.20555 -80.93490 755 ft 27 kts 202°
2026-04-25 22:10 35.20539 -80.93587 755 ft 14 kts 355°
2026-04-25 22:11 35.20642 -80.93597 755 ft 14 kts 356°
2026-04-25 22:11 35.20747 -80.93604 755 ft 15 kts 357°
2026-04-25 22:11 35.20852 -80.93611 755 ft 15 kts 355°
2026-04-25 22:11 35.20960 -80.93621 755 ft 15 kts 355°
2026-04-25 22:12 35.21066 -80.93632 755 ft 15 kts 356°
2026-04-25 22:12 35.21173 -80.93640 755 ft 15 kts 356°
2026-04-25 22:12 35.21282 -80.93648 755 ft 15 kts 356°
2026-04-25 22:12 35.21317 -80.93651 755 ft 15 kts 356°
2026-04-25 22:13 35.21474 -80.93740 755 ft 15 kts 319°
2026-04-25 22:13 35.21553 -80.93825 755 ft 15 kts 319°
2026-04-25 22:13 35.21633 -80.93910 755 ft 15 kts 318°
2026-04-25 22:13 35.21711 -80.93996 755 ft 14 kts 318°
2026-04-25 22:14 35.21706 -80.94085 755 ft 12 kts 227°
2026-04-25 22:14 35.21646 -80.94164 755 ft 12 kts 228°
2026-04-25 22:14 35.21636 -80.94259 755 ft 11 kts 275°
2026-04-25 22:14 35.21630 -80.94357 755 ft 11 kts 238°
2026-04-25 22:15 35.21587 -80.94446 755 ft 12 kts 247°
2026-04-25 22:15 35.21574 -80.94550 755 ft 12 kts 271°
2026-04-25 22:15 35.21601 -80.94652 755 ft 12 kts 291°
2026-04-25 22:16 35.21742 -80.94737 755 ft 12 kts 354°
2026-04-25 22:16 35.21833 -80.94750 755 ft 13 kts 353°
2026-04-25 22:16 35.21899 -80.94722 755 ft 10 kts 48°
2026-04-25 22:16 35.21943 -80.94647 755 ft 11 kts 56°
2026-04-25 22:17 35.21962 -80.94592 755 ft 5 kts 95°
2026-04-25 22:17 35.21959 -80.94562 755 ft 0 kts 98°